Location: Fuglau
(48.6333°N, 15.5500°E)
Time: 00:07:52
(UTC+00:00)

Ariane Rocket - Pass Details

Date: 27 February 2020
Orbit: 759 x 771 km, 98.7° (Epoch: 04 April)

Event Time Altitude Azimuth Distance (km) Brightness Sun altitude
Rises 17:46:11 0° 152° (SSE) 3,233 6.0 -12.1°
Reaches altitude 10° 17:48:30 10° 149° (SSE) 2,310 5.2 -12.5°
Maximum altitude 17:53:30 61° 71° (ENE) 873 3.0 -13.3°
Drops below altitude 10° 17:58:33 10° 351° (N) 2,326 5.6 -14.2°
Sets 18:00:53 0° 348° (NNW) 3,256 6.5 -14.6°
